Miscellaneous Local Product
Issued by NWS Hastings, NE

Home | Current Version | Previous Version | Text Only | Print | Product List | Glossary On
Versions: 1 2 3 4 5 6 7 8 9 10 11 12 13 14 15 16 17 18 19 20 21 22 23 24 25 26 27 28 29 30 31 32 33 34 35 36 37 38 39 40 41 42 43 44 45 46 47 48 49 50
000
AXUS43 KGID 180202
MISGRI

GID CWA HOURLY WEATHER ROUNDUP
NATIONAL WEATHER SERVICE HASTINGS NE
800 PM CST FRI NOV 17 2017

NOTE: "FAIR" INDICATES FEW OR NO CLOUDS BELOW 12,000 FEET WITH NO
SIGNIFICANT WEATHER AND/OR OBSTRUCTIONS TO VISIBILITY.

...SOUTH CENTRAL NEBRASKA...

CITY           SKY/WX    TMP DP  RH WIND       PRES   REMARKS
GRAND ISLAND   MOCLDY    45  36  70 N12       29.60F
KEARNEY        CLOUDY    44  34  67 N9        29.61R
HASTINGS       CLEAR     46  34  62 N13       29.58R
ORD            CLOUDY    44  36  73 N15G26    29.64R
YORK           CLOUDY    45  37  76 N18       29.57F
AURORA         PTCLDY    45  35  67 N17       29.59R
LEXINGTON      CLOUDY    46  32  57 N10       29.63R
HOLDREGE       MOCLDY    44  35  69 N15       29.60R
HEBRON         PTCLDY    51  38  61 N7        29.54F

...NEBRASKA PANHANDLE...

CITY           SKY/WX    TMP DP  RH WIND       PRES   REMARKS
CHADRON        CLOUDY    38  35  89 N8        29.73R WCI  32
ALLIANCE       CLOUDY    38  37  97 CALM      29.67R
SCOTTSBLUFF    CLOUDY    45  35  68 NW14      29.71R
SIDNEY         LGT RAIN  42  38  85 N6        29.70F

...WESTERN AND NORTH CENTRAL NEBRASKA...

CITY           SKY/WX    TMP DP  RH WIND       PRES   REMARKS
VALENTINE      LGT RAIN  42  33  70 N10       29.70R
AINSWORTH      CLOUDY    39  37  90 N7        29.69S WCI  34
ONEILL         LGT RAIN  41  39  93 NW7       29.69R
BROKEN BOW     CLOUDY    44  35  70 N18G30    29.65R
NORTH PLATTE   PTCLDY    44  34  67 N13       29.64S
MCCOOK         CLOUDY    46  33  60 N14       29.61R

...EASTERN NEBRASKA...

CITY           SKY/WX    TMP DP  RH WIND       PRES   REMARKS
NORFOLK        CLOUDY    43  37  79 N12       29.61R
SO SIOUX CITY  LGT RAIN  48  40  73 N13       29.60R
TEKAMAH        MOCLDY    47  38  71 NW6       29.58S
COLUMBUS       CLOUDY    46  37  71 NW8       29.62R
ALBION         CLOUDY    44  36  74 N14       29.63S
OMAHA EPPLEY   MOCLDY    48  40  73 N9        29.55S
OFFUTT AFB     CLOUDY    53  45  74 N9        29.54S
MILLARD        PTCLDY    53  42  66 N7        29.56R
LINCOLN        CLOUDY    48  36  63 N14       29.57R
NEBRASKA CITY  CLOUDY    57  57 100 N13       29.52F FOG
BEATRICE       CLOUDY    55  46  72 NE10      29.53S
FALLS CITY     MOCLDY    55  54  96 E8        29.48S FOG

...NORTHERN KANSAS...

CITY           SKY/WX    TMP DP  RH WIND       PRES   REMARKS
GOODLAND       CLEAR     41  30  65 N13       29.62R
HILL CITY      CLOUDY    50  35  56 N16       29.56R
NORTON         CLEAR     46  30  53 N10       29.57R
PHILLIPSBURG   CLEAR     50  34  53 N10G18    29.55R
SMITH CENTER   MOCLDY    48  34  57 N20G25    29.51F
HAYS           CLEAR     54  43  66 N8        29.48F
RUSSELL        CLEAR     53  46  77 NE13      29.46F
CONCORDIA      PTCLDY    54  48  80 NE13      29.50S
SALINA         PTCLDY    56  46  69 NW5       29.46F
TOPEKA         CLOUDY    58  55  90 CALM      29.46F



USA.gov is the U.S. government's official web portal to all federal, state and local government web resources and services.